Location: Litvinovka
(48.6667°N, 34.3500°E)
Time: 06:32:25
(UTC+00:00)

NOSS 2-2 (C) - Pass Details

Date: 18 September 2020
Orbit: 468 x 1740 km, 63.3° (Epoch: 19 October)

Event Time Altitude Azimuth Distance (km) Brightness Sun altitude
Rises 16:27:53 0° 187° (S) 2,510 6.7 -7.3°
Reaches altitude 10° 16:30:14 10° 172° (S) 1,622 5.5 -7.7°
Maximum altitude 16:33:04 23° 118° (ESE) 1,057 4.2 -8.1°
Drops below altitude 10° 16:36:05 10° 64° (ENE) 1,746 5.4 -8.6°
Sets 16:38:43 0° 50° (NE) 2,761 6.5 -9.1°
